Back to catalog

DELTA 2 R/B(2)

AliveHEO
NORAD 26115·ROCKET BODY·🇺🇸 United States

Launched Mar 25, 2000 from Vandenberg Space Force Base

Loading…

Next Passes (next 24 hours)

TLE

FreshSource: Space-Track

Epoch: Sep 14, 2026, 01:06 UTC

1 26115U 00017C   26257.04589498  .00000109  00000-0  16582-1 0  9995
2 26115  94.2651 316.6581 7394625 280.6665  11.0868  1.68225559162593

Track DELTA 2 R/B(2) in real time with AllMySat

Download on the App Store